Time,TemperatureF,DewpointF,PressureIn,WindDirection,WindDirectionDegrees,WindSpeedMPH,WindSpeedGustMPH,Humidity,HourlyPrecipIn,Conditions,Clouds,dailyrainin,SoftwareType,DateUTC
2013-06-03 00:02:00,49.0,48.0,-100.00,North,0,4.0,6.0,95,-99.99,,,-99.99,,2013-06-03 05:02:00,
2013-06-03 00:12:00,49.0,48.0,-100.00,North,0,4.0,6.0,96,-99.99,,,-99.99,,2013-06-03 05:12:00,
2013-06-03 00:22:00,49.0,48.0,-100.00,North,0,4.0,6.0,96,-99.99,,,-99.99,,2013-06-03 05:22:00,
2013-06-03 00:32:00,49.0,48.0,-100.00,North,0,1.0,5.0,96,-99.99,,,-99.99,,2013-06-03 05:32:00,
2013-06-03 00:42:00,49.0,48.0,-100.00,North,5,5.0,8.0,97,-99.99,,,-99.99,,2013-06-03 05:42:00,
2013-06-03 00:52:00,49.0,48.0,-100.00,North,5,5.0,8.0,97,-99.99,,,-99.99,,2013-06-03 05:52:00,
2013-06-03 01:02:00,49.0,48.0,-100.00,North,0,5.0,8.0,97,-99.99,,,-99.99,,2013-06-03 06:02:00,
2013-06-03 01:12:00,49.0,48.0,-100.00,North,0,6.0,8.0,97,-99.99,,,-99.99,,2013-06-03 06:12:00,
2013-06-03 01:22:00,49.0,48.0,-100.00,North,0,6.0,8.0,97,-99.99,,,-99.99,,2013-06-03 06:22:00,
2013-06-03 01:32:00,49.0,48.0,-100.00,North,0,6.0,7.0,97,-99.99,,,-99.99,,2013-06-03 06:32:00,
2013-06-03 01:42:00,49.0,48.0,-100.00,North,0,2.0,6.0,97,-99.99,,,-99.99,,2013-06-03 06:42:00,
2013-06-03 01:52:00,49.0,48.0,-100.00,North,0,2.0,6.0,97,-99.99,,,-99.99,,2013-06-03 06:52:00,
2013-06-03 02:02:00,48.0,47.0,-100.00,North,0,1.0,6.0,97,-99.99,,,-99.99,,2013-06-03 07:02:00,
2013-06-03 02:12:00,48.0,47.0,-100.00,North,5,3.0,4.0,97,-99.99,,,-99.99,,2013-06-03 07:12:00,
2013-06-03 02:22:00,48.0,47.0,-100.00,North,5,3.0,4.0,97,-99.99,,,-99.99,,2013-06-03 07:22:00,
2013-06-03 02:32:00,47.0,47.0,-100.00,North,0,2.0,4.0,97,-99.99,,,-99.99,,2013-06-03 07:32:00,
2013-06-03 02:42:00,47.0,46.0,-100.00,North,0,3.0,5.0,97,-99.99,,,-99.99,,2013-06-03 07:42:00,
2013-06-03 02:52:00,47.0,46.0,-100.00,North,0,3.0,5.0,97,-99.99,,,-99.99,,2013-06-03 07:52:00,
2013-06-03 03:02:00,47.0,46.0,-100.00,North,0,2.0,4.0,97,-99.99,,,-99.99,,2013-06-03 08:02:00,
2013-06-03 03:12:00,46.0,45.0,-100.00,North,0,1.0,1.0,97,-99.99,,,-99.99,,2013-06-03 08:12:00,
2013-06-03 03:22:00,46.0,45.0,-100.00,North,0,1.0,1.0,97,-99.99,,,-99.99,,2013-06-03 08:22:00,
2013-06-03 03:32:00,46.0,46.0,-100.00,North,0,1.0,3.0,97,-99.99,,,-99.99,,2013-06-03 08:32:00,
2013-06-03 03:42:00,46.0,45.0,-100.00,North,10,0.0,1.0,97,-99.99,,,-99.99,,2013-06-03 08:42:00,
2013-06-03 03:52:00,46.0,45.0,-100.00,North,10,0.0,1.0,97,-99.99,,,-99.99,,2013-06-03 08:52:00,
2013-06-03 04:02:00,45.0,44.0,-100.00,North,5,0.0,1.0,97,-99.99,,,-99.99,,2013-06-03 09:02:00,
2013-06-03 04:12:00,45.0,44.0,-100.00,North,0,1.0,1.0,97,-99.99,,,-99.99,,2013-06-03 09:12:00,
2013-06-03 04:22:00,45.0,44.0,-100.00,North,0,1.0,1.0,97,-99.99,,,-99.99,,2013-06-03 09:22:00,
2013-06-03 04:33:00,45.0,44.0,-100.00,North,0,1.0,4.0,97,-99.99,,,-99.99,,2013-06-03 09:33:00,
2013-06-03 04:42:00,44.0,43.0,-100.00,North,0,1.0,1.0,97,-99.99,,,-99.99,,2013-06-03 09:42:00,
2013-06-03 04:53:00,44.0,43.0,-100.00,North,0,1.0,1.0,97,-99.99,,,-99.99,,2013-06-03 09:53:00,
2013-06-03 05:03:00,44.0,44.0,-100.00,North,0,1.0,1.0,97,-99.99,,,-99.99,,2013-06-03 10:03:00,
2013-06-03 05:12:00,44.0,43.0,-100.00,North,0,1.0,1.0,97,-99.99,,,-99.99,,2013-06-03 10:12:00,
2013-06-03 05:22:00,44.0,43.0,-100.00,North,0,1.0,1.0,97,-99.99,,,-99.99,,2013-06-03 10:22:00,
2013-06-03 05:33:00,44.0,43.0,-100.00,North,0,1.0,1.0,97,-99.99,,,-99.99,,2013-06-03 10:33:00,
2013-06-03 05:42:00,44.0,43.0,-100.00,North,10,1.0,1.0,97,-99.99,,,-99.99,,2013-06-03 10:42:00,
2013-06-03 05:52:00,44.0,43.0,-100.00,North,10,1.0,1.0,97,-99.99,,,-99.99,,2013-06-03 10:52:00,
2013-06-03 06:02:00,46.0,45.0,-100.00,North,0,0.0,2.0,97,-99.99,,,-99.99,,2013-06-03 11:02:00,
2013-06-03 06:12:00,45.0,44.0,-100.00,North,0,0.0,1.0,97,-99.99,,,-99.99,,2013-06-03 11:12:00,
2013-06-03 06:22:00,45.0,44.0,-100.00,North,0,0.0,1.0,97,-99.99,,,-99.99,,2013-06-03 11:22:00,
2013-06-03 06:32:00,46.0,45.0,-100.00,North,0,1.0,1.0,97,-99.99,,,-99.99,,2013-06-03 11:32:00,
2013-06-03 06:42:00,48.0,47.0,-100.00,North,0,0.0,3.0,97,-99.99,,,-99.99,,2013-06-03 11:42:00,
2013-06-03 06:52:00,48.0,47.0,-100.00,North,0,0.0,3.0,97,-99.99,,,-99.99,,2013-06-03 11:52:00,
2013-06-03 07:02:00,48.0,47.0,-100.00,North,0,0.0,3.0,97,-99.99,,,-99.99,,2013-06-03 12:02:00,
2013-06-03 07:12:00,50.0,49.0,-100.00,North,0,1.0,1.0,97,-99.99,,,-99.99,,2013-06-03 12:12:00,
2013-06-03 07:22:00,50.0,49.0,-100.00,North,0,1.0,1.0,97,-99.99,,,-99.99,,2013-06-03 12:22:00,
2013-06-03 07:32:00,51.0,51.0,-100.00,North,10,1.0,4.0,97,-99.99,,,-99.99,,2013-06-03 12:32:00,
2013-06-03 07:42:00,53.0,52.0,-100.00,North,0,1.0,4.0,95,-99.99,,,-99.99,,2013-06-03 12:42:00,
2013-06-03 07:52:00,53.0,52.0,-100.00,North,0,1.0,4.0,95,-99.99,,,-99.99,,2013-06-03 12:52:00,
2013-06-03 08:02:00,55.0,51.0,-100.00,North,10,1.0,4.0,85,-99.99,,,-99.99,,2013-06-03 13:02:00,
2013-06-03 08:12:00,57.0,48.0,-100.00,North,10,1.0,4.0,71,-99.99,,,-99.99,,2013-06-03 13:12:00,
2013-06-03 08:22:00,57.0,48.0,-100.00,North,10,1.0,4.0,71,-99.99,,,-99.99,,2013-06-03 13:22:00,
2013-06-03 08:32:00,59.0,45.0,-100.00,North,5,4.0,6.0,59,-99.99,,,-99.99,,2013-06-03 13:32:00,
2013-06-03 08:42:00,60.0,44.0,-100.00,North,5,0.0,2.0,55,-99.99,,,-99.99,,2013-06-03 13:42:00,
2013-06-03 08:53:00,60.0,44.0,-100.00,North,5,0.0,2.0,55,-99.99,,,-99.99,,2013-06-03 13:53:00,
2013-06-03 09:02:00,59.0,43.0,-100.00,North,0,1.0,6.0,55,-99.99,,,-99.99,,2013-06-03 14:02:00,
2013-06-03 09:12:00,60.0,43.0,-100.00,North,10,6.0,7.0,53,-99.99,,,-99.99,,2013-06-03 14:12:00,
2013-06-03 09:22:00,60.0,43.0,-100.00,North,10,6.0,7.0,53,-99.99,,,-99.99,,2013-06-03 14:22:00,
2013-06-03 09:32:00,61.0,42.0,-100.00,North,5,4.0,6.0,51,-99.99,,,-99.99,,2013-06-03 14:32:00,
2013-06-03 09:42:00,61.0,43.0,-100.00,North,0,5.0,6.0,52,-99.99,,,-99.99,,2013-06-03 14:42:00,
2013-06-03 09:52:00,61.0,43.0,-100.00,North,0,5.0,6.0,52,-99.99,,,-99.99,,2013-06-03 14:52:00,
2013-06-03 10:02:00,62.0,44.0,-100.00,North,10,0.0,6.0,51,-99.99,,,-99.99,,2013-06-03 15:02:00,
2013-06-03 10:12:00,62.0,43.0,-100.00,North,0,4.0,6.0,49,-99.99,,,-99.99,,2013-06-03 15:12:00,
2013-06-03 10:22:00,62.0,43.0,-100.00,North,0,4.0,6.0,49,-99.99,,,-99.99,,2013-06-03 15:22:00,
2013-06-03 10:33:00,61.0,41.0,-100.00,NNE,15,4.0,6.0,48,-99.99,,,-99.99,,2013-06-03 15:33:00,
2013-06-03 10:43:00,63.0,42.0,-100.00,NNE,15,0.0,6.0,46,-99.99,,,-99.99,,2013-06-03 15:43:00,
2013-06-03 10:53:00,63.0,42.0,-100.00,NNE,15,0.0,6.0,46,-99.99,,,-99.99,,2013-06-03 15:53:00,
2013-06-03 11:03:00,62.0,43.0,-100.00,North,0,4.0,7.0,49,-99.99,,,-99.99,,2013-06-03 16:03:00,
2013-06-03 11:13:00,63.0,42.0,-100.00,North,10,0.0,8.0,46,-99.99,,,-99.99,,2013-06-03 16:13:00,
2013-06-03 11:23:00,63.0,42.0,-100.00,North,10,0.0,8.0,46,-99.99,,,-99.99,,2013-06-03 16:23:00,
2013-06-03 11:33:00,62.0,41.0,-100.00,North,5,1.0,4.0,47,-99.99,,,-99.99,,2013-06-03 16:33:00,
2013-06-03 11:42:00,61.0,42.0,-100.00,North,0,4.0,6.0,49,-99.99,,,-99.99,,2013-06-03 16:42:00,
2013-06-03 11:53:00,61.0,42.0,-100.00,North,0,4.0,6.0,49,-99.99,,,-99.99,,2013-06-03 16:53:00,
2013-06-03 12:02:00,65.0,42.0,-100.00,North,5,1.0,4.0,44,-99.99,,,-99.99,,2013-06-03 17:02:00,
2013-06-03 12:12:00,66.0,42.0,-100.00,North,0,1.0,5.0,42,-99.99,,,-99.99,,2013-06-03 17:12:00,
2013-06-03 12:22:00,66.0,42.0,-100.00,North,0,1.0,5.0,42,-99.99,,,-99.99,,2013-06-03 17:22:00,
2013-06-03 12:33:00,65.0,42.0,-100.00,North,0,6.0,10.0,43,-99.99,,,-99.99,,2013-06-03 17:33:00,
2013-06-03 12:42:00,64.0,42.0,-100.00,North,5,6.0,11.0,45,-99.99,,,-99.99,,2013-06-03 17:42:00,
2013-06-03 12:52:00,64.0,42.0,-100.00,North,5,6.0,11.0,45,-99.99,,,-99.99,,2013-06-03 17:52:00,
2013-06-03 13:02:00,63.0,42.0,-100.00,North,0,3.0,9.0,46,-99.99,,,-99.99,,2013-06-03 18:02:00,
2013-06-03 13:12:00,63.0,42.0,-100.00,North,0,4.0,9.0,45,-99.99,,,-99.99,,2013-06-03 18:12:00,
2013-06-03 13:22:00,63.0,42.0,-100.00,North,0,4.0,9.0,45,-99.99,,,-99.99,,2013-06-03 18:22:00,
2013-06-03 13:32:00,63.0,42.0,-100.00,North,0,2.0,6.0,46,-99.99,,,-99.99,,2013-06-03 18:32:00,
2013-06-03 13:42:00,65.0,44.0,-100.00,North,0,2.0,8.0,46,-99.99,,,-99.99,,2013-06-03 18:42:00,
2013-06-03 13:53:00,65.0,44.0,-100.00,North,0,2.0,8.0,46,-99.99,,,-99.99,,2013-06-03 18:53:00,
2013-06-03 14:03:00,66.0,43.0,-100.00,North,0,0.0,8.0,43,-99.99,,,-99.99,,2013-06-03 19:03:00,
2013-06-03 14:12:00,64.0,42.0,-100.00,North,0,2.0,7.0,45,-99.99,,,-99.99,,2013-06-03 19:12:00,
2013-06-03 14:22:00,64.0,42.0,-100.00,North,0,2.0,7.0,45,-99.99,,,-99.99,,2013-06-03 19:22:00,
2013-06-03 14:32:00,66.0,44.0,-100.00,North,0,8.0,11.0,44,-99.99,,,-99.99,,2013-06-03 19:32:00,
2013-06-03 14:42:00,65.0,42.0,-100.00,North,0,2.0,7.0,43,-99.99,,,-99.99,,2013-06-03 19:42:00,
2013-06-03 14:53:00,65.0,42.0,-100.00,North,0,2.0,7.0,43,-99.99,,,-99.99,,2013-06-03 19:53:00,
2013-06-03 15:02:00,64.0,42.0,-100.00,North,0,3.0,6.0,44,-99.99,,,-99.99,,2013-06-03 20:02:00,
2013-06-03 15:12:00,68.0,44.0,-100.00,North,0,4.0,6.0,42,-99.99,,,-99.99,,2013-06-03 20:12:00,
2013-06-03 15:22:00,68.0,44.0,-100.00,North,0,4.0,6.0,42,-99.99,,,-99.99,,2013-06-03 20:22:00,
2013-06-03 15:32:00,69.0,45.0,-100.00,North,0,4.0,12.0,41,-99.99,,,-99.99,,2013-06-03 20:32:00,
2013-06-03 15:42:00,69.0,45.0,-100.00,North,0,6.0,14.0,42,-99.99,,,-99.99,,2013-06-03 20:42:00,
2013-06-03 15:52:00,69.0,45.0,-100.00,North,0,6.0,14.0,42,-99.99,,,-99.99,,2013-06-03 20:52:00,
2013-06-03 16:02:00,66.0,44.0,-100.00,North,5,6.0,10.0,44,-99.99,,,-99.99,,2013-06-03 21:02:00,
2013-06-03 16:12:00,68.0,45.0,-100.00,North,0,8.0,11.0,44,-99.99,,,-99.99,,2013-06-03 21:12:00,
2013-06-03 16:22:00,68.0,45.0,-100.00,North,0,8.0,11.0,44,-99.99,,,-99.99,,2013-06-03 21:22:00,
2013-06-03 16:33:00,67.0,44.0,-100.00,North,0,4.0,9.0,43,-99.99,,,-99.99,,2013-06-03 21:33:00,
2013-06-03 16:43:00,71.0,45.0,-100.00,North,0,0.0,4.0,39,-99.99,,,-99.99,,2013-06-03 21:43:00,
2013-06-03 16:53:00,71.0,45.0,-100.00,North,0,0.0,4.0,39,-99.99,,,-99.99,,2013-06-03 21:53:00,
2013-06-03 17:03:00,70.0,44.0,-100.00,North,0,6.0,8.0,39,-99.99,,,-99.99,,2013-06-03 22:03:00,
2013-06-03 17:12:00,69.0,44.0,-100.00,North,0,6.0,10.0,40,-99.99,,,-99.99,,2013-06-03 22:12:00,
2013-06-03 17:22:00,69.0,44.0,-100.00,North,0,6.0,10.0,40,-99.99,,,-99.99,,2013-06-03 22:22:00,
2013-06-03 17:32:00,70.0,44.0,-100.00,North,0,5.0,9.0,39,-99.99,,,-99.99,,2013-06-03 22:32:00,
2013-06-03 17:42:00,69.0,44.0,-100.00,North,0,6.0,9.0,41,-99.99,,,-99.99,,2013-06-03 22:42:00,
2013-06-03 17:53:00,69.0,44.0,-100.00,North,0,6.0,9.0,41,-99.99,,,-99.99,,2013-06-03 22:53:00,
2013-06-03 18:02:00,70.0,45.0,-100.00,North,0,4.0,9.0,40,-99.99,,,-99.99,,2013-06-03 23:02:00,
2013-06-03 18:12:00,68.0,45.0,-100.00,North,0,10.0,12.0,43,-99.99,,,-99.99,,2013-06-03 23:12:00,
2013-06-03 18:22:00,68.0,45.0,-100.00,North,0,10.0,12.0,43,-99.99,,,-99.99,,2013-06-03 23:22:00,
2013-06-03 18:32:00,67.0,44.0,-100.00,North,0,8.0,10.0,44,-99.99,,,-99.99,,2013-06-03 23:32:00,
2013-06-03 18:42:00,67.0,44.0,-100.00,North,0,8.0,11.0,44,-99.99,,,-99.99,,2013-06-03 23:42:00,
2013-06-03 18:52:00,67.0,44.0,-100.00,North,0,8.0,11.0,44,-99.99,,,-99.99,,2013-06-03 23:52:00,
2013-06-03 19:02:00,67.0,44.0,-100.00,North,0,7.0,12.0,43,-99.99,,,-99.99,,2013-06-04 00:02:00,
2013-06-03 19:12:00,66.0,44.0,-100.00,North,0,5.0,8.0,44,-99.99,,,-99.99,,2013-06-04 00:12:00,
2013-06-03 19:22:00,66.0,44.0,-100.00,North,0,5.0,8.0,44,-99.99,,,-99.99,,2013-06-04 00:22:00,
2013-06-03 19:32:00,66.0,44.0,-100.00,North,5,5.0,7.0,45,-99.99,,,-99.99,,2013-06-04 00:32:00,
2013-06-03 19:42:00,66.0,43.0,-100.00,North,5,3.0,6.0,44,-99.99,,,-99.99,,2013-06-04 00:42:00,
2013-06-03 19:52:00,66.0,43.0,-100.00,North,5,3.0,6.0,44,-99.99,,,-99.99,,2013-06-04 00:52:00,
2013-06-03 20:02:00,65.0,43.0,-100.00,North,5,1.0,6.0,44,-99.99,,,-99.99,,2013-06-04 01:02:00,
2013-06-03 20:12:00,64.0,43.0,-100.00,North,5,6.0,9.0,47,-99.99,,,-99.99,,2013-06-04 01:12:00,
2013-06-03 20:22:00,64.0,43.0,-100.00,North,5,6.0,9.0,47,-99.99,,,-99.99,,2013-06-04 01:22:00,
2013-06-03 20:32:00,63.0,44.0,-100.00,North,0,3.0,5.0,50,-99.99,,,-99.99,,2013-06-04 01:32:00,
2013-06-03 20:42:00,62.0,45.0,-100.00,North,0,2.0,5.0,54,-99.99,,,-99.99,,2013-06-04 01:42:00,
2013-06-03 20:53:00,62.0,45.0,-100.00,North,0,2.0,5.0,54,-99.99,,,-99.99,,2013-06-04 01:53:00,
2013-06-03 21:02:00,61.0,46.0,-100.00,North,0,4.0,6.0,57,-99.99,,,-99.99,,2013-06-04 02:02:00,
2013-06-03 21:12:00,60.0,45.0,-100.00,North,5,4.0,6.0,58,-99.99,,,-99.99,,2013-06-04 02:12:00,
2013-06-03 21:22:00,60.0,45.0,-100.00,North,5,4.0,6.0,58,-99.99,,,-99.99,,2013-06-04 02:22:00,
2013-06-03 21:32:00,60.0,46.0,-100.00,North,0,3.0,8.0,61,-99.99,,,-99.99,,2013-06-04 02:32:00,
2013-06-03 21:42:00,59.0,48.0,-100.00,North,5,5.0,7.0,68,-99.99,,,-99.99,,2013-06-04 02:42:00,
2013-06-03 21:52:00,59.0,48.0,-100.00,North,5,5.0,7.0,68,-99.99,,,-99.99,,2013-06-04 02:52:00,
2013-06-03 22:02:00,58.0,49.0,-100.00,North,0,6.0,9.0,73,-99.99,,,-99.99,,2013-06-04 03:02:00,
2013-06-03 22:12:00,58.0,48.0,-100.00,North,5,4.0,8.0,69,-99.99,,,-99.99,,2013-06-04 03:12:00,
2013-06-03 22:22:00,58.0,48.0,-100.00,North,5,4.0,8.0,69,-99.99,,,-99.99,,2013-06-04 03:22:00,
2013-06-03 22:32:00,57.0,49.0,-100.00,North,0,4.0,8.0,73,-99.99,,,-99.99,,2013-06-04 03:32:00,
2013-06-03 22:43:00,57.0,48.0,-100.00,North,0,4.0,6.0,72,-99.99,,,-99.99,,2013-06-04 03:43:00,
2013-06-03 22:54:00,57.0,48.0,-100.00,North,0,4.0,6.0,72,-99.99,,,-99.99,,2013-06-04 03:54:00,
2013-06-03 23:03:00,57.0,48.0,-100.00,North,0,5.0,7.0,73,-99.99,,,-99.99,,2013-06-04 04:03:00,
2013-06-03 23:13:00,56.0,50.0,-100.00,North,0,4.0,6.0,80,-99.99,,,-99.99,,2013-06-04 04:13:00,
2013-06-03 23:23:00,56.0,50.0,-100.00,North,0,4.0,6.0,80,-99.99,,,-99.99,,2013-06-04 04:23:00,
2013-06-03 23:33:00,55.0,49.0,-100.00,North,0,4.0,5.0,82,-99.99,,,-99.99,,2013-06-04 04:33:00,
2013-06-03 23:42:00,54.0,50.0,-100.00,North,0,4.0,6.0,85,-99.99,,,-99.99,,2013-06-04 04:42:00,
2013-06-03 23:53:00,54.0,50.0,-100.00,North,0,4.0,6.0,85,-99.99,,,-99.99,,2013-06-04 04:53:00,